Flag for U.S.A. Weather past 2 weeks in Sunrise, Florida, U.S.A.

Now
89 °F

Sunny.


Feels Like: 98 °F
Forecast: 78 / 91 °F
Wind: 12 mph from Southeast

Location: Fort Lauderdale Executive Airport

Current Time: Sep 3, 2015 at 6:35:25 PM

Latest Report: Sep 3, 2015 at 5:53 PM


Visibility: 10 mi

Pressure: 29.92 "Hg

Humidity: 61%

Dew point: 74 °F

Location of SunriseLocation

Historic Weather in Sunrise — Graph

°F

Sunrise temperature yesterday

Maximum temperature yesterday: 90 °F (at 12:53 PM)
Minimum temperature yesterday: 80 °F (at 6:53 AM)
Average temperature yesterday: 85 °F

Past Weeks' High & Low Weather Summary

 TemperatureHumidityPressure
High94 °F (Aug 23, 12:53 PM)100% (Aug 27, 5:53 AM)30.11 "Hg (Aug 27, 5:53 AM)
Low74 °F (Aug 30, 4:53 AM)48% (Aug 28, 11:53 AM)29.88 "Hg (Aug 24, 6:53 PM)
Average84 °F74%29.99 "Hg
* Reported Aug 19 4:53 PM — Sep 3 4:53 PM, Sunrise, Weather by CustomWeather, © 2015

Note: Actual official high and low records may vary slightly from our data, if they occured in-between our weather recording intervals... More about our weather records

Advertising

Sunrise weather history for previous 24 hours

 ConditionsComfort  
Time TempWeatherWind HumidityBarometerVisibility
4:53 PM
Thu, Sep 3
90 °FScattered clouds.14 mph61%29.91 "Hg10 mi
3:53 PM91 °FScattered clouds.10 mph60%29.93 "Hg10 mi
2:53 PM91 °FPassing clouds.9 mph60%29.94 "Hg10 mi
1:53 PM92 °FPassing clouds.10 mph60%29.96 "Hg10 mi
12:53 PM93 °FScattered clouds.3 mph49%29.98 "Hg10 mi
11:53 AM89 °FSunny.6 mph57%30.00 "Hg10 mi
10:53 AM89 °FScattered clouds.5 mph63%30.00 "Hg10 mi
9:53 AM85 °FPassing clouds.5 mph75%30.00 "Hg10 mi
8:53 AM83 °FScattered clouds.5 mph82%30.01 "Hg10 mi
7:53 AM80 °FPassing clouds.3 mph90%30.00 "Hg10 mi
6:53 AM78 °FPassing clouds.6 mph96%29.98 "Hg10 mi
5:53 AM79 °FPassing clouds.3 mph94%29.97 "Hg10 mi
4:53 AM79 °FClear.No wind90%29.96 "Hg10 mi
3:53 AM80 °FPassing clouds.No wind90%29.97 "Hg10 mi
2:53 AM80 °FClear.No wind90%29.97 "Hg10 mi
1:53 AM81 °FPassing clouds.No wind85%29.99 "Hg10 mi
12:53 AM83 °FPassing clouds.No wind79%30.02 "Hg10 mi
11:53 PM
Wed, Sep 2
84 °FPassing clouds.No wind77%30.02 "Hg10 mi
10:53 PM84 °FPassing clouds.5 mph77%30.03 "Hg10 mi
9:53 PM85 °FClear.5 mph72%30.02 "Hg10 mi
8:53 PM85 °FPassing clouds.7 mph75%30.01 "Hg10 mi
7:53 PM85 °FPassing clouds.7 mph75%29.99 "Hg10 mi
6:53 PM87 °FPassing clouds.9 mph67%29.99 "Hg10 mi
Weather by CustomWeather, © 2015

See weather overviewHow to use our weather pages